TimeEDT,TemperatureF,Dew PointF,Humidity,Sea Level PressureIn,VisibilityMPH,Wind Direction,Wind SpeedMPH,Gust SpeedMPH,PrecipitationIn,Events,Conditions,WindDirDegrees,DateUTC
12:53 AM,59.0,55.0,87,29.88,10.0,South,5.8,-,N/A,,Overcast,180,2012-10-03 04:53:00
1:53 AM,59.0,55.9,90,29.88,8.0,South,8.1,-,N/A,,Overcast,170,2012-10-03 05:53:00
2:43 AM,59.0,55.4,88,29.90,10.0,South,4.6,-,N/A,,Overcast,190,2012-10-03 06:43:00
2:53 AM,59.0,55.9,90,29.90,9.0,SSW,6.9,-,N/A,,Overcast,210,2012-10-03 06:53:00
3:04 AM,59.0,55.4,88,29.91,9.0,South,8.1,-,N/A,,Overcast,180,2012-10-03 07:04:00
3:53 AM,59.0,55.0,87,29.91,10.0,South,10.4,-,N/A,,Overcast,190,2012-10-03 07:53:00
4:53 AM,57.9,54.0,87,29.92,10.0,South,10.4,-,N/A,,Overcast,180,2012-10-03 08:53:00
5:22 AM,57.2,53.6,88,29.94,10.0,South,9.2,-,N/A,,Overcast,180,2012-10-03 09:22:00
5:29 AM,57.2,53.6,88,29.94,9.0,South,10.4,-,N/A,,Overcast,180,2012-10-03 09:29:00
5:45 AM,57.2,55.4,94,29.95,6.0,SSW,9.2,-,N/A,,Overcast,200,2012-10-03 09:45:00
5:53 AM,57.0,55.0,93,29.94,6.0,SSW,6.9,-,N/A,,Overcast,200,2012-10-03 09:53:00
6:01 AM,57.2,55.4,94,29.95,6.0,South,9.2,-,N/A,,Overcast,190,2012-10-03 10:01:00
6:53 AM,57.0,54.0,89,29.96,10.0,South,8.1,-,N/A,,Overcast,180,2012-10-03 10:53:00
7:14 AM,57.2,55.4,94,29.97,4.0,South,8.1,-,N/A,,Overcast,170,2012-10-03 11:14:00
7:53 AM,57.0,55.0,93,29.98,8.0,South,9.2,-,N/A,,Overcast,180,2012-10-03 11:53:00
8:06 AM,57.2,53.6,88,29.99,9.0,South,11.5,-,N/A,,Overcast,190,2012-10-03 12:06:00
8:16 AM,57.2,53.6,88,30.00,9.0,South,8.1,-,N/A,,Overcast,190,2012-10-03 12:16:00
8:31 AM,57.2,53.6,88,30.00,7.0,South,10.4,-,N/A,,Overcast,190,2012-10-03 12:31:00
8:53 AM,57.0,55.0,93,30.01,6.0,South,10.4,-,N/A,,Overcast,190,2012-10-03 12:53:00
9:53 AM,57.0,55.0,93,30.03,5.0,South,10.4,-,N/A,,Overcast,190,2012-10-03 13:53:00
10:35 AM,59.0,55.4,88,30.03,6.0,South,11.5,-,N/A,,Overcast,180,2012-10-03 14:35:00
10:40 AM,59.0,55.4,88,30.04,7.0,South,13.8,-,N/A,,Overcast,190,2012-10-03 14:40:00
10:51 AM,60.8,55.4,82,30.04,9.0,SSW,12.7,-,N/A,,Overcast,200,2012-10-03 14:51:00
10:53 AM,60.1,55.0,83,30.03,9.0,SSW,11.5,-,N/A,,Overcast,200,2012-10-03 14:53:00
11:20 AM,60.8,55.4,82,30.04,10.0,SSW,10.4,-,N/A,,Overcast,200,2012-10-03 15:20:00
11:53 AM,62.1,54.0,75,30.04,10.0,SSW,13.8,-,N/A,,Overcast,200,2012-10-03 15:53:00
12:16 PM,62.6,55.4,77,30.05,10.0,SSW,16.1,20.7,N/A,,Overcast,200,2012-10-03 16:16:00
12:53 PM,64.9,54.0,68,30.04,10.0,SSW,11.5,19.6,N/A,,Mostly Cloudy,210,2012-10-03 16:53:00
1:53 PM,69.1,53.1,57,30.02,10.0,SW,18.4,24.2,N/A,,Partly Cloudy,220,2012-10-03 17:53:00
2:53 PM,70.0,53.1,55,30.01,10.0,SW,15.0,20.7,N/A,,Mostly Cloudy,220,2012-10-03 18:53:00
3:53 PM,70.0,53.1,55,30.01,10.0,SSW,12.7,-,N/A,,Mostly Cloudy,210,2012-10-03 19:53:00
4:53 PM,72.0,51.1,48,30.01,10.0,WSW,12.7,18.4,N/A,,Scattered Clouds,240,2012-10-03 20:53:00
5:53 PM,71.1,52.0,51,30.02,10.0,SSW,8.1,-,N/A,,Mostly Cloudy,210,2012-10-03 21:53:00
6:53 PM,68.0,51.1,55,30.03,10.0,SSW,6.9,-,N/A,,Clear,210,2012-10-03 22:53:00
7:53 PM,62.1,52.0,70,30.04,10.0,South,5.8,-,N/A,,Clear,170,2012-10-03 23:53:00
8:53 PM,60.1,51.1,72,30.06,10.0,South,4.6,-,N/A,,Clear,170,2012-10-04 00:53:00
9:53 PM,57.9,51.1,78,30.08,10.0,South,4.6,-,N/A,,Clear,170,2012-10-04 01:53:00
10:53 PM,59.0,51.1,75,30.08,10.0,South,5.8,-,N/A,,Clear,170,2012-10-04 02:53:00
11:53 PM,59.0,51.1,75,30.10,10.0,South,6.9,-,N/A,,Clear,190,2012-10-04 03:53:00